GEFSCGP_con_maxscp_174.txt.gz
SCP
0 0 0 0 0 0 0 0 0 0 0 0 0 1 2 3 3 3 3 3 3 2 2 3 3 3 2 2 2 2 2 2 2 2 2 2 2 2 2 2 1 1 1 0
0 0 0 0 0 0 0 0 0 0 0 0 0 1 2 3 3 3 2 3 3 3 3 3 3 3 2 3 3 3 2 3 3 2 2 2 2 2 1 1 1 1 1 0
0 0 0 0 0 0 0 0 0 0 0 0 0 1 2 3 3 3 2 2 3 3 4 4 3 3 2 3 3 3 3 3 3 3 3 2 2 1 1 1 1 1 1 1
0 0 0 0 0 0 0 0 0 0 0 0 0 1 2 3 3 2 2 2 2 3 4 3 3 3 3 3 3 3 2 2 3 3 3 3 2 1 1 1 1 1 1 1
0 0 0 0 0 0 0 0 0 0 0 0 0 1 2 3 2 2 2 2 2 3 4 4 4 3 3 3 3 3 2 2 3 3 3 2 2 1 1 1 1 1 1 1
0 0 0 0 0 0 0 0 0 0 0 0 0 0 1 2 2 2 2 2 2 3 4 4 4 3 3 3 3 3 2 2 3 3 3 2 2 1 1 1 1 1 1 0
0 0 0 0 0 0 0 0 0 0 0 0 0 0 0 1 1 2 3 3 3 3 4 4 4 3 3 3 3 3 3 3 3 3 2 2 2 2 1 1 1 1 1 1
0 0 0 0 0 0 0 0 0 0 0 0 0 0 0 1 1 2 4 4 4 3 3 4 4 3 3 3 4 4 3 3 3 3 3 3 3 2 2 2 2 2 1 1
0 0 0 0 0 0 0 0 0 0 0 0 0 0 1 1 1 3 5 5 5 4 4 4 4 3 3 3 4 4 4 4 3 3 3 3 3 3 3 3 3 2 2 2
0 0 0 0 0 0 0 0 0 0 0 0 0 0 1 1 2 3 5 5 4 4 3 3 3 3 3 3 3 3 4 4 4 3 3 3 3 3 3 3 3 3 3 3
0 0 0 0 0 0 0 0 0 0 0 0 0 0 0 1 2 3 4 4 3 3 3 3 3 3 3 3 3 3 3 3 3 3 3 3 3 3 3 4 4 4 4 3
0 0 0 0 0 0 0 0 0 0 0 0 0 0 0 1 2 3 3 3 3 3 3 3 3 3 3 3 3 3 3 3 3 3 3 3 2 2 3 4 4 4 4 4
0 0 0 0 0 0 0 0 0 0 0 0 0 0 0 1 2 2 3 2 2 2 3 2 2 2 3 3 3 3 3 3 3 3 3 3 3 2 2 3 4 4 5 4
0 0 0 0 0 0 0 0 0 0 0 0 0 0 0 1 1 1 2 2 2 2 2 2 2 2 2 2 3 3 3 3 3 4 4 3 3 3 2 3 3 4 4 4
0 0 0 0 0 0 0 0 0 0 0 0 0 0 0 1 1 1 1 1 1 2 2 1 1 1 2 2 3 3 3 3 3 3 4 3 3 3 3 2 2 3 4 4
0 0 0 0 1 1 1 1 1 0 0 0 0 0 0 1 1 1 1 1 1 2 2 1 1 1 1 2 3 3 3 3 3 3 3 3 3 3 3 2 2 2 2 3
0 0 0 0 1 1 1 1 1 0 0 0 0 0 1 1 1 1 1 1 1 2 2 1 1 1 1 2 3 3 3 3 2 2 2 3 3 3 2 2 2 2 2 2
0 0 0 0 0 1 1 1 0 1 1 1 1 1 1 1 1 1 1 1 1 2 2 1 1 1 1 1 2 3 3 3 2 2 1 2 2 2 2 2 2 2 2 1
0 0 0 0 0 0 1 1 0 1 1 1 1 1 1 1 1 1 1 1 2 2 2 1 1 1 1 1 2 3 3 3 2 1 1 1 2 2 2 2 2 2 2 1
0 0 0 0 0 0 0 0 0 0 1 1 1 1 1 1 1 1 1 1 2 2 2 1 1 1 1 1 2 3 3 2 2 1 1 1 2 2 2 2 2 2 2 1
0 0 0 0 0 0 0 0 0 0 0 1 1 1 1 1 1 1 1 1 2 2 1 1 1 1 1 1 2 3 3 2 2 1 1 1 1 2 2 2 2 2 2 1
1 0 0 0 0 0 0 0 0 0 0 0 0 1 1 1 1 1 1 1 1 1 1 1 1 1 1 1 2 2 3 2 2 1 1 1 1 1 1 2 2 2 2 2
1 1 0 0 0 0 1 1 0 0 0 0 0 0 1 1 1 1 1 1 1 1 1 1 1 1 1 1 1 2 2 2 1 1 1 1 1 1 1 1 1 2 2 2
1 0 0 1 1 1 1 1 1 1 1 0 0 0 1 1 1 2 2 2 2 1 2 2 1 1 1 1 1 1 1 1 1 1 1 1 1 1 1 1 1 1 1 1
0 0 0 1 1 0 0 0 0 1 1 1 0 0 1 1 1 2 3 3 2 2 2 2 2 1 1 1 1 1 1 1 1 2 2 2 2 2 2 2 1 1 1 1
0 0 0 0 0 0 0 0 0 1 1 0 0 0 0 1 2 3 3 3 3 2 2 2 2 2 1 1 2 1 1 1 1 2 2 2 2 2 2 2 2 1 1 1

GEFSCGP_con_maxscp_180.txt.gz
SCP
0 0 0 0 0 0 0 0 0 0 0 0 0 0 1 1 2 2 2 2 3 3 3 2 2 2 2 3 3 3 3 3 3 3 3 3 4 3 3 2 2 2 1 1
0 0 0 0 0 0 0 0 0 0 0 0 0 0 1 1 1 2 2 2 3 3 3 3 3 3 3 3 3 4 4 3 3 3 3 3 3 3 2 2 1 1 1 1
0 0 0 0 0 0 0 0 0 0 0 0 0 0 0 1 1 2 2 2 3 3 3 3 4 4 3 3 3 4 4 4 3 3 3 3 3 2 2 2 1 1 1 1
0 0 0 0 0 0 0 0 0 0 0 0 0 0 0 1 1 2 3 3 3 3 3 3 4 4 3 3 3 3 4 4 3 3 3 3 2 2 2 2 2 2 2 1
0 0 0 0 0 0 0 0 0 0 0 0 0 0 0 1 2 2 3 4 4 4 4 4 4 4 3 2 2 3 3 3 3 3 3 2 2 2 2 2 2 2 2 2
0 0 0 0 0 0 0 0 0 0 0 0 0 0 0 1 2 2 3 4 4 5 5 5 4 3 2 2 2 2 3 3 3 3 2 2 2 2 2 2 2 2 2 2
0 0 0 0 0 0 0 0 0 0 0 0 0 0 1 1 2 2 2 3 3 4 4 4 3 3 3 3 2 2 3 3 2 2 2 2 2 2 2 2 2 2 1 1
0 0 0 0 0 0 0 0 0 0 0 0 0 0 1 1 2 2 2 2 2 2 2 3 3 3 3 3 3 3 3 3 3 2 2 3 3 3 3 2 2 2 1 1
0 0 0 0 0 0 0 0 0 0 0 0 0 0 1 1 2 2 2 2 2 2 2 2 2 3 3 3 4 4 4 4 3 3 3 3 3 3 3 3 3 2 2 1
0 0 0 0 0 0 0 0 0 0 0 0 0 0 1 1 2 2 2 2 2 2 2 2 3 3 3 3 4 4 4 4 3 3 3 3 4 4 4 4 3 3 3 2
0 0 0 0 0 0 0 0 0 0 0 0 0 0 1 1 2 2 2 2 2 2 2 2 3 3 4 4 4 4 4 4 3 3 3 3 4 4 5 5 4 4 3 3
0 0 0 0 0 0 0 0 0 0 0 0 0 0 1 1 1 2 2 2 2 2 2 3 3 3 4 4 4 4 4 3 3 3 3 3 3 4 4 4 4 4 3 3
0 0 0 0 0 0 0 0 0 0 0 0 0 0 1 1 1 1 2 2 2 3 3 3 4 4 4 4 3 3 3 3 3 3 3 3 3 3 4 4 4 3 3 3
1 0 0 0 0 0 0 0 0 0 0 0 0 0 1 1 1 2 2 3 3 3 4 4 4 4 4 3 3 3 3 3 3 3 3 3 3 4 4 4 3 3 3 3
1 1 0 0 0 0 0 0 0 0 0 0 1 1 1 1 2 2 3 4 4 4 4 4 4 4 4 4 4 4 4 4 4 4 4 3 4 4 5 5 4 4 4 3
1 1 1 0 0 0 0 0 0 0 1 1 1 1 1 1 2 3 4 4 4 4 4 4 4 4 4 4 4 4 4 4 4 4 4 4 4 5 5 6 6 5 5 4
1 1 1 0 0 0 0 0 1 1 1 1 1 1 1 2 3 4 4 4 4 3 3 3 4 3 3 3 4 4 4 4 4 4 4 4 4 5 6 6 6 6 5 5
1 1 1 0 0 0 1 1 1 1 1 1 1 1 2 3 4 4 4 3 3 3 3 3 3 3 3 3 3 3 3 4 4 4 4 4 5 5 6 6 5 5 5 5
1 1 1 1 0 1 1 1 1 1 1 1 1 2 3 4 5 4 3 3 3 3 3 3 3 3 3 3 3 2 3 4 4 4 5 5 5 5 5 6 5 5 5 5
1 1 1 1 1 1 1 1 1 2 2 2 2 3 3 4 4 3 3 3 3 3 3 3 3 3 4 3 2 2 2 3 4 4 5 5 6 5 5 5 5 5 4 4
1 1 1 1 1 1 1 1 1 2 2 2 2 2 3 3 3 3 3 3 3 3 3 3 3 4 4 3 2 2 2 3 3 4 5 5 6 5 4 4 4 4 4 3
2 2 2 1 1 2 1 1 2 2 2 2 2 2 2 3 3 3 3 3 3 3 3 3 3 4 3 3 2 2 3 3 3 4 4 5 5 5 4 3 3 3 3 3
2 2 2 2 2 2 2 2 2 2 2 2 2 2 2 2 2 2 3 3 3 3 3 4 4 4 3 3 3 3 3 3 3 4 4 5 4 4 4 4 3 3 4 4
3 3 3 2 2 2 2 2 2 2 2 2 2 2 2 2 2 2 3 3 3 4 5 5 5 5 4 4 4 3 3 4 4 4 4 4 4 4 4 4 3 3 4 5
3 3 3 3 2 2 2 2 2 2 2 2 2 2 2 2 2 3 4 4 5 6 7 7 7 6 6 6 6 5 4 4 4 4 4 4 4 4 5 4 3 3 3 3
2 3 3 3 3 2 2 2 2 2 2 2 2 2 2 2 3 4 5 6 6 7 7 8 7 7 7 7 7 6 5 4 4 3 3 3 4 5 4 3 2 2 2 2

GEFSCGP_con_maxscp_186.txt.gz
SCP
0 0 0 0 0 0 0 0 0 1 1 0 0 0 1 1 1 2 3 4 5 6 7 6 5 5 5 5 5 5 5 7 8 8 7 7 7 6 5 5 6 7 6 6
0 0 0 0 0 0 0 0 1 1 1 0 0 0 1 1 1 2 3 5 6 7 7 6 5 5 5 5 5 5 5 6 7 8 7 7 6 6 5 5 6 6 5 5
0 0 0 0 0 0 0 0 1 1 1 0 0 0 1 1 1 3 3 5 6 8 8 7 6 5 5 5 5 5 5 5 6 8 8 7 7 6 5 5 5 5 4 4
0 0 0 0 0 0 0 0 0 1 0 0 0 1 1 1 2 3 3 4 6 8 8 7 6 6 5 5 5 5 5 5 7 8 7 7 7 7 5 5 5 5 4 3
0 0 0 0 0 0 0 0 0 0 0 0 0 1 1 2 2 3 3 4 5 8 8 8 7 6 5 5 5 5 6 6 7 7 6 6 7 6 5 5 6 5 4 3
0 0 0 0 0 0 0 0 0 0 0 0 0 1 1 2 3 3 3 4 5 8 9 8 7 6 5 5 5 5 5 5 5 5 5 5 5 5 5 5 6 5 4 4
0 0 0 0 0 0 0 0 0 0 0 0 0 0 1 2 4 4 4 4 6 8 9 8 7 6 5 5 5 5 5 5 4 4 4 4 5 5 5 5 5 5 4 4
0 0 0 0 0 0 0 0 0 0 0 0 0 1 2 3 4 4 4 4 6 8 9 9 7 6 5 5 5 5 5 4 4 4 4 4 4 4 4 5 5 4 4 3
0 0 0 0 0 0 0 0 0 0 0 0 0 1 2 4 4 4 4 4 5 8 9 8 7 6 5 5 5 5 5 5 5 4 4 4 4 4 5 5 5 4 3 3
0 0 0 0 0 0 0 0 0 0 0 0 0 1 3 4 4 4 4 5 6 7 7 6 6 6 5 5 6 6 6 5 5 5 5 4 4 4 5 5 4 4 4 4
0 0 0 0 0 0 0 0 0 0 0 0 0 1 3 4 4 4 5 6 6 5 5 5 6 6 5 5 6 6 6 6 6 5 5 4 4 5 5 4 4 5 5 5
0 0 0 0 0 0 0 0 0 0 0 0 1 1 3 4 4 4 5 5 5 4 5 6 7 6 5 5 6 7 6 6 6 5 5 4 4 4 4 4 4 5 5 6
0 0 0 0 0 0 0 0 0 0 0 0 1 2 3 4 4 5 5 5 6 6 6 8 8 8 6 6 6 7 6 5 5 5 5 4 4 4 4 4 4 5 5 5
0 0 0 0 0 0 0 0 0 0 0 0 1 2 3 4 5 5 4 6 7 7 8 9 10 9 8 7 8 8 7 6 5 5 5 5 5 4 4 4 4 4 4 4
0 0 0 0 0 0 0 0 0 0 0 0 1 2 3 4 4 4 4 5 7 8 9 10 10 10 9 9 9 9 8 7 6 5 6 7 6 5 4 4 4 4 4 4
1 1 1 0 0 0 0 1 0 0 0 1 1 2 3 4 5 4 4 5 7 8 8 9 9 9 10 10 10 9 8 7 7 7 7 7 7 6 5 5 5 5 5 5
1 1 1 1 0 0 1 1 1 1 1 1 2 2 4 6 7 5 5 6 8 8 8 8 8 9 9 9 8 8 7 7 7 7 7 7 7 6 5 5 5 6 7 8
1 2 2 1 1 1 1 1 1 1 1 2 3 5 6 8 8 7 7 7 8 8 8 7 7 7 7 7 6 6 6 6 6 6 6 6 6 6 6 5 6 7 8 9
2 2 2 1 1 1 1 1 1 2 2 3 4 7 8 9 8 8 8 8 9 10 9 7 6 6 6 6 7 7 6 6 5 5 5 5 6 6 6 6 7 8 8 8
1 1 1 1 1 1 1 2 2 2 3 4 5 7 8 8 8 8 8 8 10 12 11 7 6 6 6 7 8 8 7 6 5 5 4 5 6 7 8 7 7 8 7 7
1 1 1 1 1 1 2 2 2 3 4 5 6 7 8 8 8 8 7 8 9 11 11 9 8 8 8 8 9 8 7 6 5 4 5 6 7 8 8 8 8 8 8 7
1 1 1 1 2 2 3 4 5 5 6 7 8 8 8 8 8 7 8 8 8 8 9 9 10 10 10 10 10 9 7 6 5 4 5 7 9 9 8 9 9 9 9 8
2 2 2 3 3 4 6 7 8 8 8 9 10 9 8 7 7 7 7 8 7 8 8 9 10 10 10 10 10 9 7 6 5 5 6 8 11 11 10 10 10 11 10 9
3 4 4 5 5 7 9 10 11 10 10 10 9 8 7 6 6 6 6 7 7 9 9 9 9 8 8 8 8 7 6 5 5 5 6 8 11 12 11 11 12 12 11 9
4 4 5 5 6 8 10 11 11 11 10 9 8 8 8 7 7 6 6 7 8 10 10 8 7 7 7 7 6 6 5 5 4 5 6 7 9 10 11 10 10 10 8 6
4 4 4 5 7 8 9 9 10 10 9 7 8 10 11 9 8 7 7 8 9 9 9 8 7 7 7 7 6 6 5 5 4 5 5 6 7 8 9 10 8 7 5 3

GEFSCGP_con_maxscp_192.txt.gz
SCP
0 0 0 0 0 0 0 0 0 0 0 1 1 2 3 4 4 5 7 10 11 9 7 6 6 6 5 4 4 4 4 4 4 3 3 3 3 3 2 2 2 1 2 2
0 0 0 0 0 0 0 0 0 0 0 1 1 2 2 3 4 5 8 11 12 10 8 7 7 7 5 4 4 4 4 4 4 4 3 3 3 3 2 2 2 2 2 2
0 0 0 0 0 0 0 0 0 0 1 1 1 1 2 3 4 6 8 11 12 11 10 8 7 6 5 4 4 4 4 4 4 4 4 3 3 3 2 2 2 2 2 2
0 0 0 0 0 0 0 0 0 1 1 1 1 1 2 3 5 6 8 9 10 11 11 9 7 6 5 4 4 4 4 5 5 5 4 4 3 3 3 2 2 2 2 2
0 0 0 0 0 0 0 0 0 1 1 1 0 0 1 3 6 7 8 8 9 11 10 8 6 6 5 5 4 4 4 5 4 4 4 3 3 3 3 2 2 2 2 2
0 0 0 0 0 0 0 0 0 0 0 0 0 0 1 2 6 8 8 8 9 9 8 7 6 6 5 5 4 4 4 4 3 3 3 2 2 2 2 2 2 2 2 2
0 0 0 0 0 0 0 0 0 0 0 0 0 0 0 1 4 8 9 9 9 9 8 7 7 6 5 5 5 4 4 3 3 2 2 2 2 2 2 2 2 2 2 2
0 0 0 0 0 0 0 0 0 0 0 0 0 0 0 1 3 6 8 9 10 10 8 7 6 6 6 5 5 5 4 3 3 2 2 2 2 2 2 2 2 2 2 2
0 0 0 0 0 0 0 0 0 0 0 0 0 0 1 1 2 4 7 9 10 9 8 6 6 6 6 6 6 5 4 4 3 2 2 2 2 2 2 2 2 2 2 2
0 0 0 0 0 0 0 0 0 0 0 0 0 0 1 2 3 4 6 8 9 9 8 7 6 7 8 7 6 5 5 4 3 3 2 2 2 2 2 2 2 2 2 2
0 0 0 0 0 0 0 0 0 0 0 0 0 0 1 3 4 5 6 7 8 8 8 8 8 8 10 9 6 4 5 5 4 3 3 3 3 2 2 2 2 2 2 1
0 0 0 0 0 0 0 0 0 0 0 0 0 0 1 3 5 6 6 7 8 8 9 9 10 10 9 8 6 4 4 5 5 4 4 3 3 3 2 2 2 1 1 1
0 0 0 0 0 0 0 0 0 0 0 0 0 1 1 3 5 6 7 8 8 9 9 9 9 8 7 6 5 4 3 4 5 5 4 3 3 3 2 2 2 1 1 1
0 0 0 0 0 0 0 0 0 0 0 0 0 1 2 3 5 6 6 8 8 8 9 9 8 7 5 4 4 4 3 3 4 4 3 3 3 2 2 2 2 2 1 1
0 0 0 0 0 0 0 0 0 0 0 0 0 1 2 4 5 5 6 7 7 7 8 8 7 6 5 5 4 4 3 3 3 3 3 3 3 3 2 2 2 2 2 2
0 0 0 0 0 0 0 1 1 1 1 1 1 2 3 4 5 5 6 7 7 6 7 8 8 7 6 5 4 4 3 3 3 3 3 3 3 3 3 2 2 2 2 2
0 0 0 0 0 0 0 1 1 1 1 1 1 2 4 5 5 6 7 9 9 7 7 8 8 7 6 5 5 5 4 4 4 4 4 4 4 3 3 3 2 2 2 3
0 0 0 0 0 0 1 1 1 1 1 2 2 3 4 6 7 8 8 10 11 10 9 9 8 8 8 7 7 6 6 5 4 4 4 4 4 4 3 3 3 2 3 3
0 0 1 0 0 0 1 1 1 1 2 2 3 4 5 6 8 9 8 9 11 11 10 9 9 10 10 9 8 7 6 4 4 4 4 4 4 4 4 4 3 3 3 3
0 0 0 0 0 0 1 1 1 1 2 3 3 4 5 6 7 7 7 8 9 10 8 8 9 10 10 9 7 6 4 3 3 3 3 3 4 5 5 5 5 4 3 3
0 0 0 0 0 0 1 1 1 1 2 3 4 5 6 6 6 6 6 7 8 8 6 6 7 8 8 6 5 4 3 3 3 3 3 3 4 5 6 6 6 5 4 3
0 0 0 0 0 0 1 1 2 1 2 3 4 6 7 7 7 8 7 7 6 6 5 5 5 6 5 4 4 4 3 3 3 3 3 3 3 4 5 6 6 6 6 5
0 0 0 0 0 1 1 1 1 1 2 3 5 7 8 8 9 10 8 6 5 5 5 6 8 8 6 5 4 3 3 3 3 3 3 2 2 2 3 4 5 7 7 7
0 0 0 1 1 1 1 1 1 1 2 4 6 8 8 9 10 10 9 7 6 7 8 10 12 10 7 5 4 3 3 3 3 3 3 2 1 1 2 3 4 5 6 7
0 0 1 1 1 1 1 1 1 2 3 5 6 8 8 10 12 13 12 11 10 11 11 12 12 10 7 5 4 3 2 2 2 2 2 1 1 1 2 2 3 3 4 4
0 0 1 1 1 1 1 1 2 3 3 4 6 7 10 12 16 18 17 15 14 13 12 12 10 8 6 5 4 3 2 2 2 2 1 1 1 1 1 2 2 2 2 2

GEFSCGP_con_maxscp_198.txt.gz
SCP
0 0 0 0 0 0 0 0 0 0 0 0 1 1 1 2 2 2 2 2 2 2 2 2 2 1 2 2 2 1 1 1 1 1 1 1 1 1 1 1 1 1 1 1
0 0 0 0 0 0 0 0 0 0 0 1 1 2 2 2 2 2 2 2 2 2 3 2 2 2 2 2 2 2 2 2 2 2 2 2 1 1 1 1 1 1 2 1
0 0 0 0 0 0 0 0 0 0 0 1 1 2 2 2 2 2 2 2 3 3 3 3 3 2 2 2 2 2 2 2 2 3 3 3 2 2 2 2 1 1 1 1
0 0 0 0 0 0 0 0 0 0 0 0 1 1 2 1 1 1 1 2 3 3 4 4 4 3 3 3 3 3 3 3 3 3 3 3 3 2 2 2 2 1 1 1
0 0 0 0 0 0 0 0 0 0 0 0 0 0 1 1 1 1 1 2 2 3 4 5 5 4 3 3 3 3 3 3 3 3 3 3 3 2 2 2 1 1 1 1
0 0 0 0 0 0 0 0 0 0 0 0 0 0 0 1 1 1 2 2 2 3 4 5 4 4 4 4 4 3 2 2 2 2 2 2 2 2 2 1 1 1 1 1
0 0 0 0 0 0 0 0 0 0 0 0 0 0 0 0 1 1 2 2 3 3 3 4 4 4 4 4 4 3 2 2 2 2 2 2 2 2 1 1 1 1 1 1
0 0 0 0 0 0 0 0 0 0 0 0 0 0 0 0 1 1 2 3 3 3 3 4 4 4 4 4 3 3 2 2 2 2 2 2 1 1 1 1 1 1 1 1
0 0 0 0 0 0 0 0 0 0 0 0 0 0 0 1 1 1 2 3 4 4 4 4 4 4 4 3 3 3 3 3 2 2 2 2 2 2 1 1 1 1 1 2
0 0 0 0 0 0 0 0 0 0 0 0 0 0 1 1 2 2 2 2 3 4 5 5 5 4 4 4 4 4 4 4 3 2 2 2 2 2 2 1 1 1 2 2
0 0 0 0 0 0 0 0 0 0 0 0 0 0 1 2 2 2 2 2 3 4 5 5 5 4 4 5 5 4 4 4 3 3 2 2 2 2 2 2 2 2 2 2
0 0 0 0 0 0 0 0 0 0 0 0 0 0 1 1 2 2 3 3 4 5 5 5 5 4 4 5 4 4 4 4 4 3 3 2 2 2 2 2 2 1 1 1
0 0 0 0 0 0 0 0 0 0 0 0 0 0 0 1 1 2 3 4 5 6 6 5 5 5 5 4 4 4 4 4 4 3 3 2 2 2 2 2 2 1 1 1
0 0 0 0 0 0 0 0 0 0 0 0 0 0 0 1 1 2 3 3 4 5 6 6 6 6 5 4 4 4 4 3 3 3 2 2 2 2 2 2 2 1 1 1
0 0 0 1 1 1 1 1 0 0 0 0 0 1 1 1 1 2 3 3 3 4 5 6 7 6 5 4 4 4 3 3 3 2 2 2 2 2 2 2 2 2 1 1
0 0 0 1 1 1 1 1 1 1 0 0 0 1 1 1 2 3 3 3 4 4 5 5 6 5 5 4 4 3 3 3 3 2 2 2 2 2 2 2 2 2 2 2
0 0 0 0 0 1 1 1 1 1 1 1 0 1 1 2 2 3 3 4 4 4 5 5 5 4 4 4 4 4 4 3 3 3 2 2 2 2 2 2 2 2 2 2
0 0 0 0 0 0 1 1 1 1 1 1 1 1 2 3 3 3 3 3 4 4 5 5 4 5 5 5 6 5 4 3 3 3 2 2 2 2 2 2 2 3 3 3
0 0 0 0 0 0 0 1 1 1 2 1 1 2 3 4 4 3 3 3 3 4 5 5 5 5 6 6 7 6 5 4 3 2 2 2 2 2 2 2 3 3 3 3
0 0 0 0 0 0 1 1 1 1 2 2 1 2 3 4 3 3 3 3 4 5 4 4 4 5 5 5 6 6 5 4 3 2 2 2 2 2 2 2 3 3 3 3
0 0 0 0 0 0 1 1 1 1 2 2 1 5 7 5 3 3 3 3 4 4 4 3 3 3 3 4 5 6 5 4 3 2 2 2 2 2 2 2 3 3 3 3
0 0 0 0 0 0 1 2 2 1 1 2 2 7 12 7 3 3 3 3 3 3 3 3 3 2 3 3 4 5 4 4 3 2 2 2 2 2 2 2 3 3 3 3
0 0 0 0 0 1 1 2 2 2 2 2 2 5 8 6 3 3 3 3 2 2 2 2 2 2 2 3 4 4 4 3 3 3 2 2 2 2 2 2 2 3 3 3
0 0 0 0 0 1 1 2 2 2 3 3 3 3 3 3 3 3 3 3 2 2 2 2 2 2 2 2 3 4 3 3 3 2 2 2 2 2 2 1 1 2 2 3
0 0 0 0 0 1 1 2 2 2 3 3 3 3 3 3 2 3 3 3 2 2 2 2 2 2 2 2 3 3 3 3 2 2 2 1 1 1 1 1 1 1 1 1
0 0 0 0 0 0 1 1 2 2 2 2 3 3 3 2 2 2 3 3 2 2 2 1 2 2 3 3 3 3 3 3 2 1 1 1 1 1 1 1 1 0 0 0

GEFSCGP_con_maxscp_204.txt.gz
SCP
0 0 0 0 0 0 0 0 0 0 1 0 0 0 0 1 1 2 2 2 2 2 2 2 2 3 3 3 3 3 2 2 2 2 2 2 2 2 2 2 2 2 3 3
0 0 0 0 0 0 0 0 0 1 1 0 0 0 0 1 1 1 2 2 2 2 2 2 2 3 3 3 3 3 3 3 3 3 3 3 3 3 3 3 3 3 3 3
0 0 0 0 0 0 0 0 0 1 1 1 0 0 0 1 1 1 1 2 2 2 2 2 2 3 3 3 3 3 3 4 4 4 4 4 4 4 3 3 3 3 3 3
0 0 0 0 0 0 0 0 0 0 0 0 0 0 1 1 1 1 1 1 2 2 2 2 2 3 3 3 3 3 3 4 4 4 4 4 4 4 4 4 4 4 4 4
0 0 0 0 0 0 0 0 0 0 0 0 0 0 0 1 1 1 1 1 1 2 2 2 3 3 3 3 3 3 4 4 4 4 4 4 4 5 5 5 5 5 5 4
0 0 0 0 0 0 0 0 0 0 0 0 0 0 0 1 1 1 1 1 1 1 2 2 3 3 3 3 3 4 4 4 4 3 3 4 4 5 5 6 6 6 5 4
0 0 0 0 0 0 0 0 0 0 0 0 0 0 0 0 1 1 1 1 1 1 2 2 3 3 3 3 4 4 4 4 3 3 3 4 4 5 5 5 6 6 5 4
0 0 0 0 0 0 0 0 0 0 0 0 0 0 0 1 1 1 1 1 1 1 2 2 3 3 3 3 4 4 3 3 3 3 4 4 4 4 4 4 4 4 4 4
0 0 0 0 0 0 0 0 0 0 0 0 0 0 1 1 1 1 1 1 1 1 2 2 3 3 3 3 4 4 3 3 4 4 5 5 4 4 4 4 4 3 3 3
0 0 0 0 0 0 0 0 0 0 0 0 0 0 1 1 1 1 1 1 2 2 2 2 3 3 3 3 4 5 4 4 4 4 5 4 4 4 4 4 3 3 3 3
0 0 0 0 0 0 0 0 0 0 0 0 0 1 1 2 2 2 2 2 2 2 2 3 3 3 4 4 5 5 5 4 3 4 4 4 4 4 4 3 3 3 4 3
0 0 0 0 0 0 0 0 0 0 0 0 0 1 1 2 2 2 2 2 2 3 3 3 3 4 4 4 5 5 4 4 4 4 4 3 3 3 4 4 4 4 4 3
0 0 0 0 0 0 0 0 0 0 0 0 0 1 1 1 2 2 3 3 3 3 3 3 4 4 4 4 4 4 4 5 6 5 4 3 3 3 4 4 4 4 4 3
0 0 0 0 0 0 0 0 0 0 0 0 0 1 1 1 1 2 3 4 4 4 4 4 4 4 4 4 4 4 5 6 6 6 5 4 4 4 4 4 4 4 4 3
0 0 0 0 0 0 0 0 0 0 0 0 1 1 1 1 1 2 2 3 4 5 6 5 4 4 4 5 5 5 5 6 6 7 7 5 4 3 3 3 4 4 4 3
0 0 0 0 0 0 0 0 1 1 0 1 1 1 1 2 2 2 2 2 3 5 7 7 5 5 6 7 8 7 7 7 6 7 6 4 4 4 4 4 5 5 4 3
0 0 0 0 0 0 1 1 1 1 1 1 1 1 2 2 2 2 2 2 3 4 6 7 7 8 9 10 9 8 8 7 6 5 4 3 3 3 4 5 6 6 4 3
1 1 0 0 0 0 1 1 1 1 1 1 1 1 1 1 2 2 2 2 3 3 5 6 8 10 10 9 8 7 7 7 6 5 4 3 3 3 3 4 5 5 4 4
1 1 0 0 0 0 1 1 1 1 1 2 2 2 2 2 2 2 2 3 3 4 4 6 7 8 8 7 6 6 7 9 8 7 5 4 3 3 3 3 4 4 4 4
1 1 1 0 0 0 1 1 1 1 2 2 2 3 3 3 2 2 3 3 3 4 4 5 6 6 6 5 5 7 9 11 10 8 6 5 4 4 4 4 4 4 4 4
1 1 1 0 0 1 1 1 1 1 2 2 3 4 4 3 3 3 4 4 4 4 4 5 5 6 6 6 7 9 11 12 10 8 7 6 6 5 5 5 4 4 4 4
1 1 1 1 1 1 1 1 1 2 2 3 4 4 4 4 4 5 5 5 4 4 5 5 5 6 6 6 8 10 11 10 9 8 8 8 7 6 6 6 5 4 4 4
2 2 1 1 1 1 2 2 2 2 2 3 4 4 4 4 4 5 5 5 5 5 5 5 6 6 6 6 8 9 9 8 9 10 10 10 9 8 6 5 4 4 4 4
3 2 2 1 1 1 2 3 3 4 3 3 3 3 4 4 4 4 5 4 4 5 6 6 6 7 7 6 6 7 8 8 9 10 10 10 9 8 6 5 4 4 4 4
2 2 2 2 1 1 2 2 4 6 5 3 3 3 4 4 4 4 4 4 4 5 6 6 6 7 7 6 6 7 8 8 8 8 8 8 7 6 5 4 4 3 3 3
2 2 2 1 1 1 1 1 3 6 6 4 3 4 4 4 4 4 4 4 4 4 5 5 5 6 7 6 6 7 8 8 8 7 6 6 5 4 4 4 3 3 2 2

GEFSCGP_con_maxscp_210.txt.gz
SCP
0 0 0 0 0 0 0 0 0 0 0 0 1 1 1 1 1 1 3 4 5 6 6 6 7 7 7 7 6 5 5 5 5 4 4 3 3 3 3 3 4 5 7 8
0 0 0 0 0 0 0 0 0 0 0 0 1 2 2 1 1 1 3 4 6 7 8 8 8 8 7 7 6 6 5 5 5 5 4 4 4 3 4 5 5 6 7 8
0 0 0 0 0 0 0 0 0 0 0 0 1 2 2 1 1 1 2 4 5 8 11 10 8 8 7 7 6 6 6 6 6 6 5 5 4 4 5 7 8 7 7 8
0 0 0 0 0 0 0 0 0 0 0 0 0 1 2 2 1 1 2 3 4 7 11 11 8 7 7 6 6 7 8 8 7 6 5 5 5 6 7 9 9 8 7 7
0 0 0 0 0 0 0 0 0 0 0 0 0 1 2 2 2 1 2 2 2 6 10 11 9 7 6 6 6 9 11 10 8 6 5 5 6 6 7 8 7 7 7 6
0 0 0 0 0 0 0 0 0 0 0 0 0 1 1 2 2 2 2 2 2 4 8 11 9 7 6 6 6 9 11 12 10 7 5 5 6 6 6 6 6 6 6 6
0 0 0 0 0 0 0 0 0 0 0 0 1 1 1 2 2 2 2 3 3 3 6 10 10 8 6 6 7 8 11 12 10 7 5 5 5 5 5 5 5 6 6 6
0 0 0 0 0 0 0 0 0 0 0 0 1 1 1 2 2 2 3 3 3 3 5 8 10 8 7 7 7 7 9 10 8 6 5 5 5 5 5 5 5 6 5 5
0 0 0 0 0 0 0 0 0 0 0 0 1 1 1 2 2 2 3 3 3 3 4 7 9 8 8 8 7 6 6 7 7 6 5 5 5 5 5 5 6 6 5 5
0 0 0 0 0 0 0 0 0 0 0 0 0 1 1 2 2 2 3 2 2 2 4 6 8 8 8 7 7 6 6 7 7 6 5 5 5 5 5 5 6 6 5 5
0 0 0 0 0 0 0 0 0 0 0 0 1 2 2 2 3 3 3 3 2 3 5 7 8 9 8 7 6 6 7 7 7 6 5 4 4 5 5 5 5 5 5 4
0 0 0 0 0 0 0 0 0 0 0 1 2 3 4 4 4 5 5 4 5 6 8 8 8 9 9 8 7 7 7 8 7 6 5 4 5 5 5 5 5 5 4 4
0 0 0 0 0 0 0 0 0 0 0 1 2 3 4 4 5 6 6 7 8 9 10 9 9 9 10 9 8 8 8 7 7 7 6 5 6 6 6 5 4 4 4 4
0 0 0 0 0 0 0 0 0 0 0 0 1 3 3 3 4 5 6 7 8 8 8 7 8 9 10 10 10 9 8 8 8 8 8 7 7 6 6 5 4 4 4 4
0 0 0 0 0 0 0 0 0 0 0 1 2 3 3 3 3 4 4 4 5 5 4 5 8 9 10 11 11 11 11 10 9 9 8 8 7 6 5 4 4 4 4 4
1 0 0 0 0 0 0 0 0 0 1 2 3 3 3 3 4 4 4 3 3 3 4 5 8 10 11 12 13 14 14 12 10 9 8 7 7 6 5 4 4 4 4 4
1 1 1 1 0 0 0 1 1 2 3 3 3 3 3 3 3 4 5 6 6 6 6 6 8 10 11 13 14 14 13 11 9 8 7 7 6 5 4 4 5 5 5 5
2 2 1 1 1 1 1 2 3 4 5 4 3 3 3 3 4 6 8 9 10 12 12 11 10 10 11 12 13 12 10 9 8 8 7 6 6 5 5 6 6 6 6 6
1 2 1 1 1 1 2 2 3 4 4 4 4 4 4 3 5 9 11 11 12 14 15 15 14 13 13 13 12 11 9 8 9 9 8 7 6 6 6 7 8 7 7 7
1 1 1 1 1 1 2 2 2 3 3 3 4 6 5 5 6 9 10 11 13 13 14 15 15 14 13 12 11 10 9 8 9 10 10 8 7 7 7 8 8 7 7 6
1 1 2 2 2 2 2 2 2 3 4 4 5 6 6 6 6 7 7 10 13 14 14 14 14 12 11 11 10 10 9 9 11 13 12 10 9 8 9 10 8 7 6 6
1 1 2 2 2 2 3 3 4 5 5 5 5 5 6 6 6 5 7 11 15 15 14 13 12 11 10 10 11 12 11 11 14 15 13 11 9 8 10 12 10 8 7 7
2 2 2 2 3 3 4 5 5 6 6 5 5 5 5 6 7 7 9 12 14 13 12 11 11 11 9 9 10 11 13 14 16 15 13 10 9 8 9 10 10 8 8 7
3 3 3 3 4 4 4 5 5 5 5 5 4 4 6 7 8 9 9 10 10 9 9 9 10 9 8 7 7 9 11 13 13 12 11 10 9 7 6 6 7 7 6 7
5 5 4 4 4 4 4 4 4 4 4 4 3 4 6 8 8 7 7 7 7 7 7 8 8 7 6 6 6 7 8 10 10 10 9 9 8 6 5 4 5 5 5 5
6 5 5 5 4 4 4 4 3 3 3 3 3 3 6 8 7 5 5 5 7 6 6 7 8 7 5 5 6 6 7 8 9 8 8 8 8 6 4 4 4 4 4 4